Location: Llanfihangel-Ystrad
(52.1833°N, 4.1667°W)
Time: 18:30:55
(UTC+00:00)

Cosmos 1954 Rocket - Pass Details

Date: 17 February 2020
Orbit: 753 x 781 km, 74.0° (Epoch: 31 March)

Event Time Altitude Azimuth Distance (km) Brightness Sun altitude
Rises 06:25:11 0° 194° (SSW) 3,251 7.2 -10.4°
Reaches altitude 10° 06:27:34 10° 192° (SSW) 2,329 6.5 -10.1°
Maximum altitude 06:32:49 68° 111° (ESE) 843 4.5 -9.3°
Drops below altitude 10° 06:38:07 10° 29° (NNE) 2,346 6.8 -8.4°
Sets 06:40:31 0° 27° (NNE) 3,277 7.5 -8.1°
